OBJECT C, 44881

Orbit data source: Space-Track

You're viewing an Uncataloged Satellite

Recently launched and/or uncataloged satellites may have evolving metadata. Metadata may include but not limited to: Owner, Maufacturer, Bus, Motor, and Mission.

OBJECT C, 44881 is a satellite in SSO that was launched on Fri, 20 Dec 2019 UTC via a CHANG ZHENG 4B launch vehicle from the Taiyaun Space Center, China (TSC). Unknown objects in Earth's orbit typically refer to objects detected orbiting the Earth but have not yet been identified or cataloged. These objects could be anything from previously untracked satellites, spent rocket stages, debris from satellite collisions, or even natural meteoroids temporarily captured by Earth's gravity.

Loading next visibility...
Identifier
44881, 2019-093C
Orbit
SSO
Country
Flag of TBDTBD
Related business
Flag of CNSun Yat-sen University (CN)
Manufacturer
DFH Shenzhen
Mission
Operational Commercial Sci/Com
Bus & Motor
TIANQIN, Unknown motor
Mass
35 kg wet, 35 kg dry
Launch date (UTC)
2019-12-20 (6 years ago)
Launch vehicle
CHANG ZHENG 4B
Launch site
Taiyaun Space Center, China (TSC)
Object type
Unknown
Shape & HBR
Box, 0.1 m
Radar Cross Section
0.105 m², Medium (>0.1 m² and < 1m²)

Expand to show TLE details & history
Last TLE update: 7 hours ago

TLE from 7 hours ago
0 OBJECT C
1 44881U 19093C   25311.28278591  .00001641  00000-0  19368-3 0  9993
2 44881  97.7796  23.7029 0015125  96.3182 263.9756 14.85976792318455
Epoch: 2025-11-07T06:47Z
TLE epoch observation values (Epoch: 2025-11-07T06:47:12.702Z)
Latitude
-0.0001°
Longitude
-124.82899°
Altitude
614.68 km
Speed
7.551 km/s
True Right ascension
01h 34m 48s
True Declination
0° 00' 00"
Sunlit
Object was in full shadow at epoch
Visualization orbit readout
Latitude
Unknown
Longitude
Unknown
Altitude
Unknown
Speed
Unknown
Apparent Right ascension
Unknown
Apparent Declination
Unknown
Sunlit
N/A
Visualization observer readout
Local Sidereal Time
10:09:57
Azimuth
Unknown
Elevation
Unknown
Doppler factor
Unknown
Orbital elements
Apogee altitude
618.115 km
Perigee altitude
596.983 km
Semi-major axis
6,985.686 km
Eccentricity
0.00151
Inclination
97.7796°
RAAN
23.7029°
Arg. of periapsis
96.3182°
True anomaly
263.80327°
Mean anomaly
263.9756°
Eccentric anomaly
263.88943°
Mean motion
3.71732 °/min
Orbital period
96.84 mins
BSTAR
0.00019368
Loading maneuver chart data...
Computing Atmospheric mass density...
Loading historical data...
Loading historical data...
Loading historical data...
Loading historical data...
Loading historical data...
Loading historical data...
Loading historical data...

Documentation

Showing up to 5 results
|